• Join FlightAware (Why Join?)
  • Login
  • US Flag 
02:02AM EDT


 

Airport Tracker/Info


-or-


 

Live Flight TrackerFlight Track Log ✈ ASQ5738 ✈ 09-May-2013 ✈ KALB - KIAD

Flight Track Log - Related Links

Times and Time Zones

All times are in EDT time to prevent confusion due to time zone crossing. See the ASQ5738 flight status page for this flight to view local times or setup timezone preferences in your user account.

Time Position Orientation Groundspeed Altitude Reporting Facility
EDT Latitude Longitude Course Direction KTS MPH feet Rate Location/Type
10:35AM 42.7236 -73.8081 198° South 146 168 1,300  Level Boston Center
10:36AM 42.7186 -73.8644 263° West 231 266 3,300 2,280 Climbing Boston Center
10:38AM 42.5256 -74.0324 196° South  Level Estimated
10:38AM 42.7886 -73.9283 326° Northwest 301 346 6,500  Level Boston Center
10:39AM 42.4355 -73.9986 165° South  Level FlightAware Approximate
10:39AM 42.8547 -73.9894 326° Northwest 301 346 9,100  Level Boston Center
10:40AM 42.3619 -74.0767 198° South  Level Estimated
10:40AM 42.9247 -74.0478 329° Northwest 296 341 11,700  Level Boston Center
10:41AM 42.9858 -74.1344 314° West 295 339 14,100 2,100 Climbing Boston Center
10:42AM 42.9836 -74.2819 269° West 303 349 16,400 1,620 Climbing Boston Center
10:43AM 42.9508 -74.3719 244° Southwest 305 351 17,700 1,260 Climbing Boston Center
10:44AM 42.8678 -74.3608 174° South 235 270 19,000 1,380 Climbing Boston Center
10:45AM 42.7747 -74.3125 159° South 287 330 20,500 1,500 Climbing Boston Center
10:46AM 42.6900 -74.2650 158° South 308 354 22,000 1,500 Climbing Boston Center
10:47AM 42.6011 -74.2200 160° South 329 379 23,500 1,500 Climbing Boston Center
10:48AM 42.5061 -74.1722 160° South 329 379 25,100 1,440 Climbing Boston Center
10:49AM 42.4211 -74.1303 160° South 329 379 26,400 960 Climbing Boston Center
10:50AM 42.3342 -74.0858 159° South 329 379 27,100 600 Climbing Boston Center
10:51AM 42.2431 -74.0442 161° South 334 384 27,600 420 Climbing Boston Center
10:52AM 42.1431 -74.0417 179° South 344 396 28,000 180 Climbing Boston Center
10:53AM 42.0431 -74.0475 182° South 356 410 28,000  Level Boston Center
10:54AM 41.9411 -74.0367 175° South 369 425 28,000  Level Boston Center
10:55AM 41.8758 -73.9233 128° Southeast 337 388 28,000  Level Boston Center
10:56AM 41.8064 -73.8214 132° Southeast 350 403 28,000  Level Boston Center
10:57AM 41.6503 -73.8583 190° South 349 402 28,000  Level New York Center
10:58AM 41.5656 -73.9125 206° Southwest 362 417 28,000  Level New York Center
10:59AM 41.4842 -73.9972 218° Southwest 368 423 28,000 -60 Level New York Center
11:00AM 41.4006 -74.0844 218° Southwest 382 440 27,900  Descending New York Center
11:01AM 41.3189 -74.1717 219° Southwest 382 440 28,000  Climbing New York Center
11:02AM 41.2225 -74.2606 215° Southwest 387 445 28,000  Level New York Center
11:03AM 41.1386 -74.3497 219° Southwest 392 451 28,000  Level New York Center
11:04AM 41.0544 -74.4417 219° Southwest 392 451 28,000  Level New York Center
11:05AM 40.9664 -74.5275 216° Southwest 392 451 28,000  Level New York Center
11:06AM 40.8900 -74.6331 226° Southwest 397 457 28,000  Level New York Center
11:07AM 40.8503 -74.7681 249° West 394 453 28,000  Level New York Center
11:08AM 40.8081 -74.9053 248° West 394 453 28,000 -300 Level New York Center
11:09AM 40.7656 -75.0397 247° West 400 460 27,400 -840 Descending New York Center
11:10AM 40.7231 -75.1794 248° West 405 466 26,400 -1,020 Descending New York Center
11:11AM 40.6683 -75.3019 240° Southwest 410 472 25,400 -1,020 Descending New York Center
11:12AM 40.6078 -75.4153 235° Southwest 392 451 24,400 -1,020 Descending New York Center
11:13AM 40.5469 -75.5286 235° Southwest 392 451 23,400 -1,020 Descending New York Center
11:14AM 40.4886 -75.6339 234° Southwest 381 438 22,400 -1,020 Descending New York Center
11:15AM 40.4297 -75.7417 234° Southwest 369 425 21,400 -1,020 Descending New York Center
11:16AM 40.3689 -75.8489 233° Southwest 364 419 20,400 -720 Descending New York Center
11:17AM 40.3106 -75.9481 232° Southwest 364 419 20,000 -300 Descending New York Center
11:18AM 40.2561 -76.0472 234° Southwest 358 412 19,900 -600 Descending New York Center
11:19AM 40.2014 -76.1492 235° Southwest 353 406 18,900 -840 Descending New York Center
11:20AM 40.1514 -76.2378 234° Southwest 348 400 18,200 -840 Descending New York Center
11:21AM 40.0939 -76.3525 237° Southwest 343 395 17,300 -900 Descending New York Center
11:22AM 40.0500 -76.4439 238° Southwest 337 388 16,500 -780 Descending New York Center
11:25AM 39.9500 -76.6500 238° Southwest 318 366 14,900 -540 Descending Potomac TRACON
11:26AM 39.9000 -76.7500 237° Southwest 314 361 14,900  Level Potomac TRACON
11:27AM 39.8667 -76.8500 247° West 314 361 15,000 -300 Climbing Potomac TRACON
11:28AM 39.8167 -76.9500 237° Southwest 318 366 14,300 -900 Descending Potomac TRACON
11:29AM 39.7667 -77.0500 237° Southwest 323 372 13,300 -1,140 Descending Potomac TRACON
11:30AM 39.7167 -77.1500 237° Southwest 317 365 12,200 -1,140 Descending Potomac TRACON
11:30AM 39.6833 -77.2167 237° Southwest 314 361 11,200 -1,320 Descending Potomac TRACON
11:31AM 39.6167 -77.3000 224° Southwest 300 345 9,900 -1,320 Descending Potomac TRACON
11:32AM 39.5333 -77.3500 205° Southwest 286 329 8,700 -1,080 Descending Potomac TRACON
11:33AM 39.4667 -77.3833 201° Southwest 288 331 7,700 -900 Descending Potomac TRACON
11:34AM 39.3833 -77.4000 189° South 279 321 7,000 -900 Descending Potomac TRACON
11:35AM 39.3167 -77.4333 201° Southwest 274 315 6,000 -960 Descending Potomac TRACON
11:36AM 39.2500 -77.4500 191° South 272 313 5,100 -840 Descending Potomac TRACON
11:37AM 39.1667 -77.4500 180° South 277 319 4,400 -1,200 Descending Potomac TRACON
11:38AM 39.1000 -77.4500 180° South 265 305 2,900 -1,680 Descending Potomac TRACON